Weather Roundup
Issued by NWS

Home | Current Version | Previous Version | Text Only | Print | Product List | Glossary On
Versions: 1 2 3 4 5 6 7 8 9 10 11 12 13 14 15 16 17 18 19 20 21 22 23 24 25 26 27 28 29 30 31 32 33 34 35 36 37 38 39 40 41 42 43 44 45 46 47 48 49 50
000
NZUS93 KARX 170910
HRRWXR

CURRENT HOURLY OBSERVATIONS ACROSS
MUCH OF THE UPPER MISSISSIPPI VALLEY
NATIONAL WEATHER SERVICE LA CROSSE WI
400 AM CDT THU APR 17 2014


...SOUTHEAST MINNESOTA...


CITY           SKY/WX    TMP DP  RH WIND       PRES   REMARKS
ROCHESTER      FOG       36  34  92 NW22      29.90R VSB 1/2 WCI  25
ROCHESTER/MAYO CLOUDY    39  37  91 W20G26    29.90R WCI  30
WINONA         LGT RAIN  48  36  61 SW3       29.89R
AUSTIN         CLOUDY    30  30 100 NW18G26   29.97R WCI  18
ALBERT LEA     CLOUDY    30  30 100 NW12G22   30.01R WCI  21
DODGE CENTER   CLOUDY    34  34 100 NW16G28   29.94R FOG     WCI  23
PRESTON        CLOUDY    36  35  96 W22       29.89R FOG     WCI  25
OWATONNA       CLOUDY    30  28  93 NW17      30.01R WCI  18
FARIBAULT      CLOUDY    34  28  80 NW17G23   30.01R WCI  23
$$

...ELSEWHERE IN MINNESOTA...


CITY           SKY/WX    TMP DP  RH WIND       PRES   REMARKS
MINNEAPOLIS    CLOUDY    28  28 100 N16G26    30.03R WCI  16
INTNL FALLS    CLEAR     22   8  55 N5        30.26S WCI  16
DULUTH         LGT SNOW  29  25  85 NE16      30.10S VSB 1   WCI  17
RED WING       CLOUDY    37  36  93 N10G17    29.95R FOG     WCI  30
REDWOOD FALLS  CLEAR     24  19  81 NW12      30.14R WCI  13
MANKATO        CLOUDY    30  25  80 N20G25    30.07R WCI  18
WORTHINGTON    PTCLDY    27  18  69 NW18G26   30.15R WCI  13
FAIRMONT       CLOUDY    28  25  86 NW22G29   30.10R WCI  15
$$

...SOUTHWEST WISCONSIN...


CITY           SKY/WX    TMP DP  RH WIND       PRES   REMARKS
LA CROSSE      CLOUDY    49  29  46 S13       29.87S
PRAIRIE DU CHI CLOUDY    47  33  58 S13       29.92S
BOSCOBEL       MOCLDY    48  28  46 S12G20    29.93F
LONE ROCK      CLOUDY    45  30  55 S12G22    29.95F
PLATTEVILLE    MOCLDY    43  30  59 S16       29.97R
FORT MC COY    CLOUDY    46  29  50 SE13      29.91R
CAMP DOUGLAS   CLOUDY    44  31  61 SE12      29.93F
VIROQUA        CLOUDY    44  29  55 S12G18    29.89S
WIS DELLS      CLOUDY    43  28  56 SE20G26   29.96S
$$

...ELSEWHERE IN WISCONSIN...


CITY           SKY/WX    TMP DP  RH WIND       PRES   REMARKS
MILWAUKEE      CLOUDY    40  30  67 SE16      30.12F WCI  31
MADISON        CLOUDY    45  28  51 S15G25    30.00F
GREEN BAY      LGT SNOW  36  32  85 SE26G36   30.13S FOG     WCI  24
EAU CLAIRE     LGT RAIN  38  36  92 NE8       29.94R WCI  32
BLACK RVR FLS  CLOUDY    46  31  57 SE6       29.90S
MEDFORD        LGT SNOW  32  32  97 E10G18    29.98R WCI  24
WAUSAU         CLOUDY    34  31  88 SE17      29.99S WCI  23
WIS RAPIDS     CLOUDY    41  28  60 SE9       29.98F
MARSHFIELD     CLOUDY    38  30  73 SE8       29.96S WCI  32
RICE LAKE      LGT SNOW  33  32  96 N8        30.00R WCI  26
$$

...NORTHEAST IOWA...


CITY           SKY/WX    TMP DP  RH WIND       PRES   REMARKS
WATERLOO       CLOUDY    34  30  85 W14       30.01R WCI  25
DUBUQUE        CLEAR     41  29  62 S16       29.96R
DECORAH        CLOUDY    37  37 100 SW12G23   29.91R WCI  30
MASON CITY     CLOUDY    31  29  92 NW23G30   30.04R WCI  18
CHARLES CITY   CLOUDY    34  30  86 W20       29.99R WCI  22
OELWEIN        CLOUDY   N/A N/A N/A W20       29.99R
$$

...ELSEWHERE IN IOWA...


CITY           SKY/WX    TMP DP  RH WIND       PRES   REMARKS
DES MOINES     CLOUDY    36  29  75 NW17G23   30.12R WCI  26
IOWA CITY      CLOUDY    44  39  82 W20G26    30.04R
FORT DODGE     CLOUDY    30  25  80 NW13G18   30.12R WCI  20
MARSHALLTOWN   CLOUDY    33  30  88 W21       30.06R WCI  21
CEDAR RAPIDS   CLOUDY    38  32  79 W18       30.02R WCI  28
$$

...NORTHERN ILLINOIS...


CITY           SKY/WX    TMP DP  RH WIND       PRES   REMARKS
CHICAGO-OHARE  CLOUDY    43  24  47 S15       30.13F
DUPAGE         MOCLDY    41  26  55 S15       30.11S
CHICAGO-MIDWAY MOCLDY    43  25  49 S15G22    30.14F
MOLINE         CLOUDY    46  27  47 S16G23    30.02R
ROCKFORD       CLOUDY    42  28  57 S13       30.07F
STERLING       CLOUDY    45  30  57 S8G16     30.04R
PEORIA         PTCLDY    43  30  60 S14       30.09S
$$

NOTE: "FAIR" INDICATES FEW OR NO CLOUDS BELOW 12,000 FEET WITH NO
SIGNIFICANT WEATHER AND/OR OBSTRUCTIONS TO VISIBILITY. WIND
SPEEDS ARE IN MILES-PER-HOUR.



USA.gov is the U.S. government's official web portal to all federal, state and local government web resources and services.